Regional Weather Roundup
Issued by NWS Portland, ME

Home | Current Version | Previous Version | Text Only | Print | Product List | Glossary On
Versions: 1 2 3 4 5 6 7 8 9 10 11 12 13 14 15 16 17 18 19 20 21 22 23 24 25 26 27 28 29 30 31 32 33 34 35 36 37 38 39 40 41 42 43 44 45 46 47 48 49 50
000
ASUS41 KGYX 300005
RWRGYX
WEATHER ROUNDUP FOR MAINE AND NEW HAMPSHIRE
NATIONAL WEATHER SERVICE GRAY ME
800 PM EDT FRI AUG 29 2014

MEZ002-005-006-010-012-015-018-020-021-024-026-027-029-300100-
MAINE

CITY           SKY/WX    TMP DP  RH WIND       PRES   REMARKS
PORTLAND       PTCLDY    59  48  67 SW6       30.24R
6HR MIN TEMP:  59; 6HR MAX TEMP:  69;

SANFORD        CLEAR     55  48  76 CALM      30.25R
BAR HARBOR     CLEAR     63  46  55 W3        30.21R
WISCASSET      CLEAR     59  52  77 CALM      30.25R
6HR MIN TEMP:  59; 6HR MAX TEMP:  72;

ROCKLAND       CLEAR     57  48  72 SW5       30.22R
FRYEBURG       CLEAR     62  55  77 SE3       30.22R
6HR MIN TEMP:  62; 6HR MAX TEMP:  77;

LEWISTONAUBURN CLEAR     59  52  77 S5        30.23R
AUGUSTA        CLEAR     62  49  62 S3        30.22S
6HR MIN TEMP:  62; 6HR MAX TEMP:  71;

WATERVILLE     CLEAR     57  50  77 CALM      30.17S
BANGOR         PTCLDY    57  46  66 CALM      30.21R
6HR MIN TEMP:  57; 6HR MAX TEMP:  73;

GREENVILLE       N/A     57  44  62 CALM      30.20S
6HR MIN TEMP:  55; 6HR MAX TEMP:  66;

MILLINOCKET    CLEAR     60  50  69 CALM      30.20R
6HR MIN TEMP:  60; 6HR MAX TEMP:  74;

HOULTON        CLEAR     53  49  86 CALM      30.18R
6HR MIN TEMP:  52; 6HR MAX TEMP:  71;

PRESQUE ISLE   CLEAR     57  46  67 CALM      30.17R
6HR MIN TEMP:  57; 6HR MAX TEMP:  70;

FRENCHVILLE    CLEAR     61  42  49 W3        30.17R
6HR MIN TEMP:  61; 6HR MAX TEMP:  68;

CARIBOU        CLEAR     60  45  57 CALM      30.16R
6HR MIN TEMP:  60; 6HR MAX TEMP:  73;

$$

NHZ002-005-008-009-011-012-014-300100-
NEW HAMPSHIRE

CITY           SKY/WX    TMP DP  RH WIND       PRES   REMARKS
PORTSMOUTH     PTCLDY    60  53  77 SE7       30.23R
ROCHESTER      CLEAR     60  52  74 SE3       30.23S
6HR MIN TEMP:  60; 6HR MAX TEMP:  73;

NASHUA         PTCLDY    67  56  67 SE8       30.23R
MANCHESTER     MOCLDY    65  56  72 SE6       30.21R
6HR MIN TEMP:  65; 6HR MAX TEMP:  76;

CONCORD        PTCLDY    62  56  80 VRB6      30.22R
6HR MIN TEMP:  62; 6HR MAX TEMP:  77;

LACONIA        PTCLDY    66  55  68 S10       30.19S
PLYMOUTH       FAIR      63  61  94 CALM      30.19S
BERLIN         PTCLDY    55  52  89 CALM      30.21R
6HR MIN TEMP:  55; 6HR MAX TEMP:  75;

WHITEFIELD     CLOUDY    66  57  72 CALM      30.20R
6HR MIN TEMP:  66; 6HR MAX TEMP:  76;

JAFFREY        MOCLDY    64  58  80 CALM      30.23S
6HR MIN TEMP:  64; 6HR MAX TEMP:  75;

LEBANON        MOCLDY    63  56  78 CALM      30.18S
6HR MIN TEMP:  63; 6HR MAX TEMP:  77;

MT WASHINGTON  FOG       46  46 100 SW16G23     N/A  VSB 1/8
6HR MIN TEMP:  46; 6HR MAX TEMP:  53;

$$

VTZ005-007-008-300100-
VERMONT

CITY           SKY/WX    TMP DP  RH WIND       PRES   REMARKS
ST JOHNSBURY     N/A     64  56  75 MISG      30.18R
MONTPELIER     MOCLDY    61  55  81 CALM      30.23S
BURLINGTON     MOCLDY    67  57  70 CALM      30.17R
$$

MAZ007-012-024-CTZ003-RIZ002-NYZ038-NYZ072-300100-
SOUTHERN NEW ENGLAND AND NY

CITY           SKY/WX    TMP DP  RH WIND       PRES   REMARKS
BOSTON         PTCLDY    63  53  70 SE8       30.24R
WORCESTER      CLEAR     65  55  70 S5        30.24R
NANTUCKET      CLEAR     59  53  80 NE3       30.25R
PROVIDENCE     PTCLDY    66  56  70 SW7       30.24R
HARTFORD       PTCLDY    71  55  56 S7        30.20R
ALBANY         PTCLDY    69  55  60 CALM      30.18R
NEW YORK CITY  MOCLDY    71  53  52 SE14      30.20R
$$

ANZ081-ANZ082-ANZ150-NHZ014-MEZ023>029-300100-
COASTAL MARINE OBSERVATIONS

STATION/POSITION TIME  TEMP    WIND        PRES    WAVE
                       AIR SEA DIR/SP/G            HT/PER
                 (UTC) (F)     (DEG/KT/KT) (MB)    (FT/S)
MATINICUS ROCK   2300          260/ 13/ 14 1022.6R
PORTLAND WX BUOY 2350   63 62  200/ 10/ 12 1023.7R   3/13
WELLS            2300   63 61  200/  8/ 10 1023.0R
ISLE OF SHOALS   2300   62     170/ 11/ 11 1023.3R
JEFFREYS LEDGE   2321      66                N/A     4/12
CASHES LEDGE BUO 2350   63 66              1023.6R   4/11
$$

.............KEY..............
   WCI - WIND CHILL
   TC  - TEMPERATURE IN CELSIUS
   VSB - VISIBILITY IN MILES
   HX  - HEAT INDEX
   FAIR- INDICATES FEW OR NO CLOUDS BELOW 12,000 FT, WITH NO
         SIGNIFICANT WEATHER AND/OR OBSTRUCTIONS TO VISIBILITY.




USA.gov is the U.S. government's official web portal to all federal, state and local government web resources and services.